Patrick AFB, FL

12:01 AM EST on February 24, 2017 (GMT -0500)
Patrick Air Force Base

Weather History for KCOF - July, 2013

Change the Weather History Date:

Tuesday, July 30, 2013

  Actual Average Record
Temperature  
Mean Temperature 84 °F -  
Max Temperature 85 °F 85 °F 97 °F (2010)
Min Temperature 79 °F 74 °F 73 °F (2000)
Cooling Degree Days 19    
Growing Degree Days 34 (Base 50)    
Moisture  
Dew Point 76 °F    
Average Humidity 81    
Maximum Humidity 92    
Minimum Humidity 66    
Precipitation  
Precipitation 0.00 in - - ()
Sea Level Pressure  
Sea Level Pressure 30.16 in    
Wind  
Wind Speed 4 mph (ESE)    
Max Wind Speed 10 mph    
Max Gust Speed -    
Visibility 9 miles    
Events      
Averages and records for this station are not official NWS values.
T = Trace of Precipitation, MM = Missing Value Source: NWS Daily Summary

Daily Weather History Graph

Daily Weather History Graph

Search for Another Location

Airport or City:

Trip Planner

Search our weather history database for the weather conditions in past years. The results will help you decide how hot, cold, wet, or windy it might be!

Date:

Astronomy

Jul. 30, 2013 Rise Set
Actual Time 6:43 AM EDT 8:13 PM EDT
Civil Twilight 6:18 AM EDT 8:39 PM EDT
Nautical Twilight 5:47 AM EDT 9:09 PM EDT
Astronomical Twilight 5:15 AM EDT 9:41 PM EDT
Moon 12:56 AM EDT (7/30) 2:34 PM EDT (7/30)
Length of Visible Light 14h 21m
Length of Day
13h 30m
Last Quarter, 41% of the Moon is Illuminated
Jul 30
Last Quarter
Aug 6
New
Aug 14
First Quarter
Aug 20
Full
Aug 28
Last Quarter

Hourly Weather History & Observations

Time (EDT) Temp. Heat Index Dew Point Humidity Pressure Visibility Wind Dir Wind Speed Gust Speed Precip Events Conditions
12:58 AM 79.7 °F - 77.0 °F 91% 30.19 in 10.0 mi SE 3.5 mph - N/A   Clear
1:58 AM 79.7 °F - 76.6 °F 90% 30.17 in 10.0 mi SSE 4.6 mph - N/A   Clear
2:58 AM 79.3 °F - 76.8 °F 92% 30.16 in 10.0 mi ESE 1.2 mph - N/A   Clear
3:58 AM 79.3 °F - 76.8 °F 92% 30.14 in 10.0 mi SE 4.6 mph - N/A   Clear
4:58 AM 79.3 °F - 76.8 °F 92% 30.14 in 10.0 mi SSE 3.5 mph - N/A   Clear
5:58 AM 79.0 °F - 76.6 °F 92% 30.16 in 10.0 mi Calm Calm - N/A   Clear
6:58 AM 79.0 °F - 76.3 °F 91% 30.17 in 10.0 mi Calm Calm - N/A   Clear
7:58 AM 79.5 °F - 76.5 °F 90% 30.17 in 10.0 mi Calm Calm - N/A   Clear
8:58 AM 82.9 °F 92.1 °F 77.2 °F 83% 30.19 in 10.0 mi Variable 1.2 mph - N/A   Clear
9:58 AM 86.0 °F 95.1 °F 75.2 °F 70% 30.17 in 7.0 mi ENE 6.9 mph - N/A   Scattered Clouds
10:58 AM 87.8 °F 97.6 °F 75.2 °F 66% 30.17 in 7.0 mi ENE 6.9 mph - N/A   Scattered Clouds
11:58 AM 87.8 °F 97.6 °F 75.2 °F 66% 30.14 in 7.0 mi ENE 6.9 mph - N/A   Scattered Clouds
12:58 PM 86.0 °F 95.1 °F 75.2 °F 70% 30.16 in 7.0 mi ENE 6.9 mph - N/A   Scattered Clouds
1:57 PM 89.6 °F 102.2 °F 77.0 °F 66% 30.16 in 7.0 mi East 5.8 mph - N/A   Scattered Clouds
2:58 PM 87.8 °F 99.7 °F 77.0 °F 70% 30.16 in 7.0 mi East 10.4 mph - N/A   Scattered Clouds
3:58 PM 85.3 °F 94.6 °F 75.6 °F 73% 30.14 in 10.0 mi ESE 10.4 mph - N/A   Clear
4:58 PM 84.9 °F 92.5 °F 74.3 °F 70% 30.14 in 10.0 mi ESE 8.1 mph - N/A   Clear
5:58 PM 83.7 °F 91.7 °F 75.6 °F 76% 30.14 in 10.0 mi SE 10.4 mph - N/A   Clear
6:58 PM 82.9 °F 90.8 °F 75.7 °F 79% 30.14 in 10.0 mi SE 6.9 mph - N/A   Clear
7:58 PM 82.0 °F 89.4 °F 75.9 °F 82% 30.14 in 10.0 mi SE 5.8 mph - N/A   Clear
8:58 PM 81.1 °F 87.2 °F 75.2 °F 82% 30.16 in 10.0 mi SE 5.8 mph - N/A   Clear
9:58 PM 81.0 °F 87.3 °F 76.1 °F 85% 30.14 in 10.0 mi SE 6.9 mph - N/A   Clear
10:58 PM 80.6 °F 86.9 °F 76.8 °F 88% 30.15 in 10.0 mi ESE 6.9 mph - N/A   Clear
11:58 PM 80.6 °F 86.9 °F 76.8 °F 88% 30.15 in 10.0 mi SE 4.6 mph - N/A   Clear